Погода в Соболевке

Украина / Винницкая область     48°37′09″N   29°28′43″E
темп.,
°C
ветер,
м/с
пор.,
м/с
влажн.,
%
обл.,
%
осадки,
мм/ч
давл.,
гПа
погр.,
м
16 апреля, пт
пт1600:00+7сз6108999 0.0 1012494
03:00+6зсз5888100 0.0 1012457
06:00+5сз5888100 0.1 1013584
09:00+4зсз5894100 0.1 1013588
12:00+6зсз5780100 0.1 1014926
15:00+7з5774100 0.3 10141166
18:00+6зсз797788 0.1 1015934
21:00+4зсз51186100 0.1 1018849
17 апреля, сб
сб1700:00+5зсз497886 0.0 1018982
03:00+3з359276 0.0 1019134
06:00+3зюз249359 0.0 1020113
09:00+6юз248092 0.0 1020474
12:00+10ююз456099 0.1 10201495
15:00+11зюз2353100 0.3 10191352
18:00+11ссв116093 0.0 1019137
21:00+9ссв3571100 0.0 1020122
18 апреля, вс
вс1800:00+8св3583100 0.0 1020180
03:00+7св2286100 0.0 101981
06:00+6в118692 0.0 101938
09:00+8ююв226864 0.0 1019313
12:00+12ююв334495 0.0 10181446
15:00+14юв2241100 0.0 10182015
18:00+14вюв224296 0.0 10171796
21:00+12юв1256100 0.0 101722
19 апреля, пн
пн1900:00+11всв2362100 0.0 101765
03:00+9ююв226897 0.0 101746
06:00+9всв2271100 0.0 101632
09:00+11в466495 0.0 1015529
12:00+13в6753100 0.1 10141785
15:00+14в6848100 0.1 10122127
18:00+13всв61057100 0.1 10091461
21:00+11св81362100 0.1 1007975
20 апреля, вт
вт2000:00+9св91579100 0.9 10051233
03:00+7св101790100 8.5 10001165
06:00+7ссв111890100 6.9 9971217
09:00+7ссв81492100 8.0 996996
12:00+6с81392100 0.9 995778
15:00+5ссз91393100 2.1 996793
18:00+5ссз81296100 3.9 998946
21:00+4сз71196100 4.9 1001916